GALAXY 13 (HORIZONS-1)

Last updated on Wed Nov 20 2024 00:02:39 GMT+0000 (Coordinated Universal Time)

1 27954U 03044A 24324.60773670 .00000134 00000+0 00000+0 0 9995 2 27954 0.0480 92.7031 0001427 83.2551 311.9672 1.00272636 40810
UTC large
Height (km)
Speed (km/s)
/
Latitude / Longitude
Inclination (degrees)
Orbital Period (minutes)
Azimuth
Elevation
Range (km)
Doppler Factor

Next 0 passes for location: London (51.5072 / 0.1276)

Sorry there are no passes over London.